{"data":{"norad_id":40920,"epoch":"2026-05-25T03:07:40.091232Z","epoch_age_seconds":60213,"freshness":"FRESH","line1":"1 40920U 15050A   26145.13032513  .00000043  00000+0  23925-3 0  9992","line2":"2 40920  82.4905  94.0241 0011014  43.9144 316.2809 12.42926193483998","mean_motion":12.42926193,"eccentricity":0.0011014,"inclination_deg":82.4905,"raan_deg":94.0241,"arg_perigee_deg":43.9144,"mean_anomaly_deg":316.2809,"bstar":0.00023925,"rev_number":48399,"period_min":115.85563230624,"perigee_km":1485.5524153028,"apogee_km":1502.8936499827,"semimajor_km":7872.3600326427,"source":"CELESTRAK","updated_at":"2026-05-25T13:37:55.552986Z"}}